TimeMDT,TemperatureF,Dew PointF,Humidity,Sea Level PressureIn,VisibilityMPH,Wind Direction,Wind SpeedMPH,Gust SpeedMPH,PrecipitationIn,Events,Conditions,WindDirDegrees,DateUTC
12:53 AM,46.0,28.0,50,30.01,10.0,SSE,5.8,-,N/A,,Clear,160,2013-03-29 06:53:00
1:53 AM,39.9,27.0,60,30.03,10.0,Calm,Calm,-,N/A,,Clear,0,2013-03-29 07:53:00
2:53 AM,39.9,27.0,60,30.03,10.0,Calm,Calm,-,N/A,,Clear,0,2013-03-29 08:53:00
3:53 AM,34.0,25.0,70,30.04,10.0,NNE,5.8,-,N/A,,Clear,20,2013-03-29 09:53:00
4:53 AM,39.0,26.1,60,30.04,10.0,Calm,Calm,-,N/A,,Clear,0,2013-03-29 10:53:00
5:53 AM,35.1,26.1,70,30.09,10.0,NNW,3.5,-,N/A,,Clear,340,2013-03-29 11:53:00
6:53 AM,36.0,27.0,70,30.09,10.0,Calm,Calm,-,N/A,,Clear,0,2013-03-29 12:53:00
7:53 AM,34.0,26.1,73,30.14,10.0,Calm,Calm,-,N/A,,Clear,0,2013-03-29 13:53:00
8:53 AM,43.0,30.0,60,30.14,10.0,Calm,Calm,-,N/A,,Clear,0,2013-03-29 14:53:00
9:53 AM,54.0,30.9,41,30.10,10.0,Calm,Calm,-,N/A,,Clear,0,2013-03-29 15:53:00
10:53 AM,59.0,30.0,33,30.10,10.0,Calm,Calm,-,N/A,,Clear,0,2013-03-29 16:53:00
11:53 AM,61.0,28.0,29,30.10,10.0,NW,4.6,-,N/A,,Clear,310,2013-03-29 17:53:00
12:53 PM,62.1,24.1,23,30.08,10.0,Calm,Calm,-,N/A,,Clear,0,2013-03-29 18:53:00
1:53 PM,64.0,25.0,23,30.08,10.0,NW,5.8,-,N/A,,Clear,310,2013-03-29 19:53:00
2:53 PM,63.0,27.0,26,30.07,10.0,NW,3.5,-,N/A,,Mostly Cloudy,310,2013-03-29 20:53:00
3:53 PM,64.0,26.1,24,30.07,10.0,SSW,9.2,-,N/A,,Mostly Cloudy,200,2013-03-29 21:53:00
4:53 PM,66.0,28.0,24,30.04,10.0,South,9.2,16.1,0.00,,Partly Cloudy,190,2013-03-29 22:53:00
5:53 PM,64.0,28.0,26,30.05,10.0,West,5.8,-,N/A,,Scattered Clouds,270,2013-03-29 23:53:00
6:53 PM,63.0,26.1,25,30.05,10.0,SW,6.9,-,N/A,,Clear,220,2013-03-30 00:53:00
7:53 PM,57.0,28.0,33,30.07,10.0,South,3.5,-,N/A,,Clear,190,2013-03-30 01:53:00
8:53 PM,52.0,28.0,40,30.08,10.0,SSE,4.6,-,N/A,,Clear,160,2013-03-30 02:53:00
9:53 PM,50.0,27.0,41,30.08,10.0,SE,5.8,-,N/A,,Clear,140,2013-03-30 03:53:00
10:53 PM,48.9,27.0,43,30.08,10.0,SE,8.1,-,N/A,,Clear,130,2013-03-30 04:53:00
11:53 PM,45.0,27.0,49,30.09,10.0,Calm,Calm,-,N/A,,Clear,0,2013-03-30 05:53:00